Weather History for CWAR - September, 2012

Change the Weather History Date:

Wednesday, September 19, 2012

  Actual Average Record
Temperature  
Mean Temperature 57 °F -  
Max Temperature 63 °F - - ()
Min Temperature 51 °F - - ()
Degree Days  
Heating Degree Days 8    
Growing Degree Days 7 (Base 50)    
Moisture  
Dew Point 52 °F    
Average Humidity 82    
Maximum Humidity 90    
Minimum Humidity 71    
Precipitation  
Precipitation 0.00 in - - ()
Sea Level Pressure  
Sea Level Pressure 30.37 in    
Wind  
Wind Speed 7 mph ()    
Max Wind Speed 15 mph    
Max Gust Speed 20 mph    
T = Trace of Precipitation, MM = Missing Value Source: Averaged Metar Reports

Daily Weather History Graph

Daily Weather History Graph

Search for Another Location

Airport or City:

Trip Planner

Search our weather history database for the weather conditions in past years. The results will help you decide how hot, cold, wet, or windy it might be!

Date:

Astronomy

Sep. 19, 2012 Rise Set
Actual Time 6:49 AM NDT 7:08 PM NDT
Civil Twilight 6:18 AM NDT 7:39 PM NDT
Nautical Twilight 5:42 AM NDT 8:15 PM NDT
Astronomical Twilight 5:04 AM NDT 8:52 PM NDT
Moon 11:13 AM NDT (9/19) 8:51 PM NDT (9/19)
Length of Visible Light 13h 20m
Length of Day
12h 19m
Waxing Crescent, 16% of the Moon is Illuminated
Sep 19
Waxing Crescent
Sep 22
First Quarter
Sep 30
Full
Oct 8
Last Quarter
Oct 15
New

Hourly Weather History & Observations

Time (NDT) Temp. Dew Point Humidity Pressure Visibility Wind Dir Wind Speed Gust Speed Precip Events Conditions
12:30 AM 56 °F 50 °F 74% 30.35 in - South 6.9 mph - -  
12:30 AM 55.6 °F 50.0 °F 81% 30.35 in - South 6.9 mph - N/A   Unknown
2:30 AM 54.0 °F 48.0 °F 80% 30.36 in - South 4.6 mph - N/A   Unknown
3:30 AM 53 °F 48 °F 78% 30.35 in - South 6.9 mph - -  
3:30 AM 52.7 °F 48.2 °F 85% 30.35 in - South 6.9 mph - N/A   Unknown
4:30 AM 53.6 °F 47.3 °F 79% 30.36 in - South 3.5 mph - N/A   Unknown
5:30 AM 52.2 °F 48.9 °F 89% 30.36 in - South 4.6 mph - N/A   Unknown
6:30 AM 52 °F 48 °F 82% 30.37 in - SSE 5.8 mph - -  
6:30 AM 51.6 °F 48.2 °F 88% 30.37 in - SSE 5.8 mph - N/A   Unknown
7:30 AM 53.4 °F 49.6 °F 87% 30.37 in - South 6.9 mph - N/A   Unknown
8:30 AM 55.0 °F 49.8 °F 83% 30.38 in - South 6.9 mph - N/A   Unknown
9:30 AM 60 °F 53 °F 71% 30.38 in - SSW 6.9 mph - -  
9:30 AM 59.7 °F 53.1 °F 79% 30.38 in - SSW 6.9 mph - N/A   Unknown
10:30 AM 61.5 °F 54.0 °F 76% 30.38 in - SW 9.2 mph - N/A   Unknown
11:30 AM 61.2 °F 55.2 °F 81% 30.38 in - WSW 9.2 mph - N/A   Unknown
12:30 PM 61 °F 55 °F 73% 30.39 in - WSW 10.4 mph - -  
12:30 PM 61.3 °F 54.7 °F 79% 30.39 in - WSW 10.4 mph - N/A   Unknown
1:30 PM 61.2 °F 55.0 °F 80% 30.38 in - SW 10.4 mph - N/A   Unknown
2:30 PM 61.2 °F 55.4 °F 81% 30.37 in - SW 12.7 mph - N/A   Unknown
3:30 PM 61 °F 55 °F 75% 30.36 in - SSW 11.5 mph - -  
3:30 PM 60.8 °F 55.2 °F 82% 30.36 in - SSW 11.5 mph - N/A   Unknown
4:30 PM 60.8 °F 55.8 °F 83% 30.37 in - SW 13.8 mph - N/A   Unknown
5:30 PM 59.5 °F 55.0 °F 85% 30.37 in - SSW 11.5 mph - N/A   Unknown
6:30 PM 59 °F 55 °F 82% 30.36 in - SSW 11.5 mph - -  
6:30 PM 58.8 °F 55.0 °F 87% 30.36 in - SSW 11.5 mph - N/A   Unknown
7:30 PM 57.7 °F 54.7 °F 90% 30.37 in - SSW 11.5 mph - N/A   Unknown
8:30 PM 57.0 °F 54.1 °F 90% 30.36 in - South 13.8 mph 19.6 mph N/A   Unknown
9:30 PM 57 °F 54 °F 84% 30.36 in - South 15.0 mph - -  
10:30 PM 57.2 °F 54.0 °F 89% 30.36 in - South 15.0 mph - N/A   Unknown
11:30 PM 58.6 °F 54.9 °F 87% 30.35 in - South 13.8 mph - N/A   Unknown